Location: Burbank
(38.7788°N, 114.0429°W)
Time: 13:59:08
(UTC+00:00)

Injun/Solrad 3 - Pass Details

Date: 21 May 2026
Orbit: 867 x 989 km, 66.8° (Epoch: 8 June)

Event Time Altitude Azimuth Distance (km) Brightness Sun altitude
Rises 23:31:07 0° 265° (W) 3,550 11.9 36.0°
Reaches altitude 10° 23:34:59 10° 290° (WNW) 2,639 11.4 35.3°
Maximum altitude 23:38:09 14° 321° (NW) 2,365 10.7 34.6°
Drops below altitude 10° 23:41:23 10° 353° (N) 2,688 10.5 34.0°
Sets 23:45:25 0° 17° (NNE) 3,662 10.9 33.2°
